Year,Month,Day,Hour,Minute,Value (Times are PST for windspeed in km/hr)
2013,09,27,00,00,2.90
2013,09,27,00,01,4.40
2013,09,27,00,02,5.80
2013,09,27,00,03,4.80
2013,09,27,00,04,3.60
2013,09,27,00,05,3.30
2013,09,27,00,06,0.90
2013,09,27,00,07,2.00
2013,09,27,00,08,3.80
2013,09,27,00,09,2.70
2013,09,27,00,10,3.70
2013,09,27,00,11,3.20
2013,09,27,00,12,3.00
2013,09,27,00,13,3.70
2013,09,27,00,14,5.30
2013,09,27,00,15,4.40
2013,09,27,00,16,5.20
2013,09,27,00,17,2.50
2013,09,27,00,18,1.40
2013,09,27,00,19,2.10
2013,09,27,00,20,2.20
2013,09,27,00,21,2.70
2013,09,27,00,22,2.60
2013,09,27,00,23,3.30
2013,09,27,00,24,2.80
2013,09,27,00,25,3.60
2013,09,27,00,26,2.80
2013,09,27,00,27,1.40
2013,09,27,00,28,1.80
2013,09,27,00,29,0.80
2013,09,27,00,30,1.40
2013,09,27,00,31,2.50
2013,09,27,00,32,2.90
2013,09,27,00,33,4.00
2013,09,27,00,34,2.80
2013,09,27,00,35,1.10
2013,09,27,00,36,0.00
2013,09,27,00,37,0.40
2013,09,27,00,38,1.40
2013,09,27,00,39,2.30
2013,09,27,00,40,1.60
2013,09,27,00,41,1.20
2013,09,27,00,42,2.40
2013,09,27,00,43,1.70
2013,09,27,00,44,1.10
2013,09,27,00,45,0.40
2013,09,27,00,46,0.20
2013,09,27,00,47,0.60
2013,09,27,00,48,2.80
2013,09,27,00,49,3.70
2013,09,27,00,50,2.10
2013,09,27,00,51,0.40
2013,09,27,00,52,0.80
2013,09,27,00,53,2.20
2013,09,27,00,54,0.60
2013,09,27,00,55,0.80
2013,09,27,00,56,0.60
2013,09,27,00,57,0.40
2013,09,27,00,58,1.30
2013,09,27,00,59,1.70
2013,09,27,01,00,2.90
2013,09,27,01,01,2.60
2013,09,27,01,02,0.90
2013,09,27,01,03,0.80
2013,09,27,01,04,1.80
2013,09,27,01,05,1.60
2013,09,27,01,06,0.80
2013,09,27,01,07,1.80
2013,09,27,01,08,0.60
2013,09,27,01,09,0.60
2013,09,27,01,10,1.80
2013,09,27,01,11,2.50
2013,09,27,01,12,2.30
2013,09,27,01,13,1.70
2013,09,27,01,14,1.30
2013,09,27,01,15,1.50
2013,09,27,01,16,2.30
2013,09,27,01,17,0.80
2013,09,27,01,18,1.40
2013,09,27,01,19,0.60
2013,09,27,01,20,1.60
2013,09,27,01,21,1.80
2013,09,27,01,22,2.80
2013,09,27,01,23,3.10
2013,09,27,01,24,3.40
2013,09,27,01,25,0.80
2013,09,27,01,26,1.20
2013,09,27,01,27,0.70
2013,09,27,01,28,0.00
2013,09,27,01,29,1.20
2013,09,27,01,30,1.50
2013,09,27,01,31,2.10
2013,09,27,01,32,2.00
2013,09,27,01,33,2.20
2013,09,27,01,34,1.70
2013,09,27,01,35,0.30
2013,09,27,01,36,0.80
2013,09,27,01,37,0.00
2013,09,27,01,38,0.10
2013,09,27,01,39,1.60
2013,09,27,01,40,4.20
2013,09,27,01,41,4.30
2013,09,27,01,42,3.70
2013,09,27,01,43,2.90
2013,09,27,01,44,3.40
2013,09,27,01,45,2.20
2013,09,27,01,46,3.10
2013,09,27,01,47,2.10
2013,09,27,01,48,2.10
2013,09,27,01,49,1.60
2013,09,27,01,50,0.80
2013,09,27,01,51,0.20
2013,09,27,01,52,0.60
2013,09,27,01,53,0.20
2013,09,27,01,54,0.10
2013,09,27,01,55,0.00
2013,09,27,01,56,0.80
2013,09,27,01,57,2.00
2013,09,27,01,58,2.50
2013,09,27,01,59,3.30
2013,09,27,02,00,3.90
2013,09,27,02,01,4.40
2013,09,27,02,02,3.90
2013,09,27,02,03,3.20
2013,09,27,02,04,3.40
2013,09,27,02,05,3.30
2013,09,27,02,06,4.40
2013,09,27,02,07,4.80
2013,09,27,02,08,3.40
2013,09,27,02,09,5.50
2013,09,27,02,10,3.60
2013,09,27,02,11,4.00
2013,09,27,02,12,3.30
2013,09,27,02,13,4.20
2013,09,27,02,14,2.70
2013,09,27,02,15,3.30
2013,09,27,02,16,4.20
2013,09,27,02,17,3.70
2013,09,27,02,18,3.10
2013,09,27,02,19,2.90
2013,09,27,02,20,2.30
2013,09,27,02,21,2.60
2013,09,27,02,22,2.90
2013,09,27,02,23,2.40
2013,09,27,02,24,2.00
2013,09,27,02,25,2.40
2013,09,27,02,26,1.00
2013,09,27,02,27,0.50
2013,09,27,02,28,0.40
2013,09,27,02,29,0.10
2013,09,27,02,30,0.10
2013,09,27,02,31,0.00
2013,09,27,02,32,0.00
2013,09,27,02,33,0.80
2013,09,27,02,34,0.20
2013,09,27,02,35,0.40
2013,09,27,02,36,0.00
2013,09,27,02,37,0.10
2013,09,27,02,38,0.00
2013,09,27,02,39,0.00
2013,09,27,02,40,0.00
2013,09,27,02,41,0.00
2013,09,27,02,42,0.00
2013,09,27,02,43,0.00
2013,09,27,02,44,0.00
2013,09,27,02,45,0.00
2013,09,27,02,46,0.00
2013,09,27,02,47,0.00
2013,09,27,02,48,0.00
2013,09,27,02,49,0.00
2013,09,27,02,50,0.00
2013,09,27,02,51,0.00
2013,09,27,02,52,0.00
2013,09,27,02,53,0.00
2013,09,27,02,54,0.00
2013,09,27,02,55,0.00
2013,09,27,02,56,0.00
2013,09,27,02,57,0.70
2013,09,27,02,58,0.40
2013,09,27,02,59,0.40
2013,09,27,03,00,0.70
2013,09,27,03,01,0.10
2013,09,27,03,02,0.00
2013,09,27,03,03,0.00
2013,09,27,03,04,0.10
2013,09,27,03,05,0.10
2013,09,27,03,06,0.70
2013,09,27,03,07,0.80
2013,09,27,03,08,0.50
2013,09,27,03,09,0.20
2013,09,27,03,10,0.00
2013,09,27,03,11,1.50
2013,09,27,03,12,2.00
2013,09,27,03,13,1.00
2013,09,27,03,14,0.90
2013,09,27,03,15,0.60
2013,09,27,03,16,0.50
2013,09,27,03,17,0.00
2013,09,27,03,18,0.60
2013,09,27,03,19,0.30
2013,09,27,03,20,0.90
2013,09,27,03,21,1.20
2013,09,27,03,22,0.40
2013,09,27,03,23,0.40
2013,09,27,03,24,0.60
2013,09,27,03,25,0.10
2013,09,27,03,26,0.00
2013,09,27,03,27,0.00
2013,09,27,03,28,0.30
2013,09,27,03,29,0.20
2013,09,27,03,30,0.90
2013,09,27,03,31,1.80
2013,09,27,03,32,1.50
2013,09,27,03,33,1.90
2013,09,27,03,34,1.60
2013,09,27,03,35,1.80
2013,09,27,03,36,1.50
2013,09,27,03,37,1.30
2013,09,27,03,38,0.40
2013,09,27,03,39,0.90
2013,09,27,03,40,1.60
2013,09,27,03,41,1.70
2013,09,27,03,42,1.50
2013,09,27,03,43,0.60
2013,09,27,03,44,0.40
2013,09,27,03,45,0.70
2013,09,27,03,46,0.50
2013,09,27,03,47,1.30
2013,09,27,03,48,0.90
2013,09,27,03,49,1.00
2013,09,27,03,50,1.30
2013,09,27,03,51,1.60
2013,09,27,03,52,1.90
2013,09,27,03,53,2.10
2013,09,27,03,54,1.70
2013,09,27,03,55,1.90
2013,09,27,03,56,1.80
2013,09,27,03,57,1.30
2013,09,27,03,58,1.20
2013,09,27,03,59,0.30
2013,09,27,04,00,0.20
2013,09,27,04,01,0.10
2013,09,27,04,02,0.30
2013,09,27,04,03,0.30
2013,09,27,04,04,0.30
2013,09,27,04,05,0.70
2013,09,27,04,06,0.60
2013,09,27,04,07,0.30
2013,09,27,04,08,0.60
2013,09,27,04,09,1.30
2013,09,27,04,10,0.50
2013,09,27,04,11,0.40
2013,09,27,04,12,0.00
2013,09,27,04,13,0.00
2013,09,27,04,14,1.10
2013,09,27,04,15,0.40
2013,09,27,04,16,0.00
2013,09,27,04,17,0.30
2013,09,27,04,18,1.10
2013,09,27,04,19,0.90
2013,09,27,04,20,0.60
2013,09,27,04,21,2.10
2013,09,27,04,22,1.80
2013,09,27,04,23,1.40
2013,09,27,04,24,2.80
2013,09,27,04,25,2.20
2013,09,27,04,26,2.10
2013,09,27,04,27,1.20
2013,09,27,04,28,2.40
2013,09,27,04,29,2.30
2013,09,27,04,30,2.90
2013,09,27,04,31,3.00
2013,09,27,04,32,3.10
2013,09,27,04,33,2.90
2013,09,27,04,34,2.70
2013,09,27,04,35,2.00
2013,09,27,04,36,1.60
2013,09,27,04,37,0.90
2013,09,27,04,38,0.80
2013,09,27,04,39,0.30
2013,09,27,04,40,0.20
2013,09,27,04,41,0.20
2013,09,27,04,42,0.10
2013,09,27,04,43,0.30
2013,09,27,04,44,1.80
2013,09,27,04,45,1.40
2013,09,27,04,46,0.70
2013,09,27,04,47,0.10
2013,09,27,04,48,0.30
2013,09,27,04,49,0.10
2013,09,27,04,50,0.50
2013,09,27,04,51,0.40
2013,09,27,04,52,0.60
2013,09,27,04,53,0.60
2013,09,27,04,54,1.30
2013,09,27,04,55,2.50
2013,09,27,04,56,2.00
2013,09,27,04,57,2.20
2013,09,27,04,58,1.30
2013,09,27,04,59,0.50
2013,09,27,05,00,0.70
2013,09,27,05,01,0.40
2013,09,27,05,02,0.50
2013,09,27,05,03,0.00
2013,09,27,05,04,0.00
2013,09,27,05,05,0.00
2013,09,27,05,06,0.00
2013,09,27,05,07,0.00
2013,09,27,05,08,0.60
2013,09,27,05,09,0.80
2013,09,27,05,10,1.00
2013,09,27,05,11,1.70
2013,09,27,05,12,1.90
2013,09,27,05,13,1.90
2013,09,27,05,14,1.00
2013,09,27,05,15,1.80
2013,09,27,05,16,1.00
2013,09,27,05,17,1.50
2013,09,27,05,18,2.20
2013,09,27,05,19,1.50
2013,09,27,05,20,1.80
2013,09,27,05,21,1.40
2013,09,27,05,22,1.40
2013,09,27,05,23,1.10
2013,09,27,05,24,1.30
2013,09,27,05,25,1.80
2013,09,27,05,26,1.80
2013,09,27,05,27,1.60
2013,09,27,05,28,1.60
2013,09,27,05,29,2.00
2013,09,27,05,30,2.60
2013,09,27,05,31,1.70
2013,09,27,05,32,3.40
2013,09,27,05,33,2.30
2013,09,27,05,34,2.40
2013,09,27,05,35,2.90
2013,09,27,05,36,2.40
2013,09,27,05,37,1.10
2013,09,27,05,38,0.60
2013,09,27,05,39,0.80
2013,09,27,05,40,1.30
2013,09,27,05,41,1.70
2013,09,27,05,42,1.40
2013,09,27,05,43,1.30
2013,09,27,05,44,1.40
2013,09,27,05,45,3.00
2013,09,27,05,46,4.20
2013,09,27,05,47,3.70
2013,09,27,05,48,3.50
2013,09,27,05,49,3.20
2013,09,27,05,50,2.80
2013,09,27,05,51,2.50
2013,09,27,05,52,3.40
2013,09,27,05,53,3.40
2013,09,27,05,54,3.70
2013,09,27,05,55,3.70
2013,09,27,05,56,4.10
2013,09,27,05,57,5.00
2013,09,27,05,58,4.10
2013,09,27,05,59,5.30
2013,09,27,06,00,4.00
2013,09,27,06,01,4.40
2013,09,27,06,02,4.20
2013,09,27,06,03,5.50
2013,09,27,06,04,6.20
2013,09,27,06,05,7.00
2013,09,27,06,06,5.30
2013,09,27,06,07,7.80
2013,09,27,06,08,9.10
2013,09,27,06,09,6.20
2013,09,27,06,10,4.80
2013,09,27,06,11,5.90
2013,09,27,06,12,7.30
2013,09,27,06,13,7.90
2013,09,27,06,14,10.50
2013,09,27,06,15,7.70
2013,09,27,06,16,5.50
2013,09,27,06,17,8.00
2013,09,27,06,18,6.70
2013,09,27,06,19,6.10
2013,09,27,06,20,4.90
2013,09,27,06,21,6.20
2013,09,27,06,22,5.80
2013,09,27,06,23,6.20
2013,09,27,06,24,4.80
2013,09,27,06,25,4.30
2013,09,27,06,26,3.90
2013,09,27,06,27,3.80
2013,09,27,06,28,4.40
2013,09,27,06,29,3.10
2013,09,27,06,30,1.50
2013,09,27,06,31,2.00
2013,09,27,06,32,1.70
2013,09,27,06,33,1.90
2013,09,27,06,34,3.60
2013,09,27,06,35,3.00
2013,09,27,06,36,2.60
2013,09,27,06,37,2.00
2013,09,27,06,38,3.80
2013,09,27,06,39,3.50
2013,09,27,06,40,5.00
2013,09,27,06,41,3.70
2013,09,27,06,42,4.30
2013,09,27,06,43,5.50
2013,09,27,06,44,2.20
2013,09,27,06,45,1.90
2013,09,27,06,46,1.40
2013,09,27,06,47,1.90
2013,09,27,06,48,2.40
2013,09,27,06,49,2.60
2013,09,27,06,50,2.60
2013,09,27,06,51,4.20
2013,09,27,06,52,4.60
2013,09,27,06,53,4.50
2013,09,27,06,54,2.80
2013,09,27,06,55,2.00
2013,09,27,06,56,2.70
2013,09,27,06,57,2.50
2013,09,27,06,58,2.90
2013,09,27,06,59,1.10
2013,09,27,07,00,2.00
2013,09,27,07,01,2.10
2013,09,27,07,02,2.50
2013,09,27,07,03,2.40
2013,09,27,07,04,3.70
2013,09,27,07,05,3.30
2013,09,27,07,06,1.10
2013,09,27,07,07,2.70
2013,09,27,07,08,3.20
2013,09,27,07,09,3.30
2013,09,27,07,10,3.40
2013,09,27,07,11,4.90
2013,09,27,07,12,2.80
2013,09,27,07,13,2.90
2013,09,27,07,14,4.20
2013,09,27,07,15,3.80
2013,09,27,07,16,3.70
2013,09,27,07,17,4.80
2013,09,27,07,18,4.10
2013,09,27,07,19,2.90
2013,09,27,07,20,4.00
2013,09,27,07,21,2.60
2013,09,27,07,22,1.60
2013,09,27,07,23,1.40
2013,09,27,07,24,2.30
2013,09,27,07,25,3.90
2013,09,27,07,26,2.60
2013,09,27,07,27,3.80
2013,09,27,07,28,3.70
2013,09,27,07,29,2.60
2013,09,27,07,30,2.60
2013,09,27,07,31,2.40
2013,09,27,07,32,4.60
2013,09,27,07,33,2.40
2013,09,27,07,34,1.50
2013,09,27,07,35,1.80
2013,09,27,07,36,2.30
2013,09,27,07,37,1.10
2013,09,27,07,38,0.80
2013,09,27,07,39,1.70
2013,09,27,07,40,2.10
2013,09,27,07,41,2.90
2013,09,27,07,42,1.80
2013,09,27,07,43,1.30
2013,09,27,07,44,2.10
2013,09,27,07,45,1.60
2013,09,27,07,46,1.50
2013,09,27,07,47,1.30
2013,09,27,07,48,1.60
2013,09,27,07,49,1.70
2013,09,27,07,50,1.80
2013,09,27,07,51,1.30
2013,09,27,07,52,1.80
2013,09,27,07,53,0.60
2013,09,27,07,54,0.60
2013,09,27,07,55,0.20
2013,09,27,07,56,0.30
2013,09,27,07,57,1.90
2013,09,27,07,58,1.60
2013,09,27,07,59,0.60
2013,09,27,08,00,1.20
2013,09,27,08,01,1.10
2013,09,27,08,02,1.70
2013,09,27,08,03,0.70
2013,09,27,08,04,0.90
2013,09,27,08,05,2.60
2013,09,27,08,06,2.30
2013,09,27,08,07,2.20
2013,09,27,08,08,2.90
2013,09,27,08,09,2.20
2013,09,27,08,10,0.00
2013,09,27,08,11,1.70
2013,09,27,08,12,3.10
2013,09,27,08,13,1.20
2013,09,27,08,14,2.00
2013,09,27,08,15,2.00
2013,09,27,08,16,2.20
2013,09,27,08,17,2.60
2013,09,27,08,18,4.00
2013,09,27,08,19,3.90
2013,09,27,08,20,3.70
2013,09,27,08,21,3.20
2013,09,27,08,22,2.80
2013,09,27,08,23,3.40
2013,09,27,08,24,4.20
2013,09,27,08,25,5.00
2013,09,27,08,26,5.50
2013,09,27,08,27,4.20
2013,09,27,08,28,4.20
2013,09,27,08,29,4.40
2013,09,27,08,30,4.70
2013,09,27,08,31,3.60
2013,09,27,08,32,4.00
2013,09,27,08,33,4.20
2013,09,27,08,34,3.80
2013,09,27,08,35,3.80
2013,09,27,08,36,5.60
2013,09,27,08,37,4.90
2013,09,27,08,38,5.20
2013,09,27,08,39,2.80
2013,09,27,08,40,2.70
2013,09,27,08,41,4.70
2013,09,27,08,42,5.00
2013,09,27,08,43,6.00
2013,09,27,08,44,4.10
2013,09,27,08,45,4.90
2013,09,27,08,46,4.40
2013,09,27,08,47,5.20
2013,09,27,08,48,5.00
2013,09,27,08,49,4.10
2013,09,27,08,50,3.30
2013,09,27,08,51,3.50
2013,09,27,08,52,4.50
2013,09,27,08,53,3.50
2013,09,27,08,54,2.80
2013,09,27,08,55,2.40
2013,09,27,08,56,2.40
2013,09,27,08,57,4.00
2013,09,27,08,58,4.30
2013,09,27,08,59,2.20
2013,09,27,09,00,3.50
2013,09,27,09,01,3.50
2013,09,27,09,02,1.80
2013,09,27,09,03,4.20
2013,09,27,09,04,3.60
2013,09,27,09,05,3.10
2013,09,27,09,06,4.50
2013,09,27,09,07,3.30
2013,09,27,09,08,2.90
2013,09,27,09,09,3.30
2013,09,27,09,10,2.70
2013,09,27,09,11,4.00
2013,09,27,09,12,2.80
2013,09,27,09,13,1.00
2013,09,27,09,14,1.00
2013,09,27,09,15,3.40
2013,09,27,09,16,2.60
2013,09,27,09,17,2.60
2013,09,27,09,18,3.70
2013,09,27,09,19,2.80
2013,09,27,09,20,2.60
2013,09,27,09,21,2.50
2013,09,27,09,22,1.70
2013,09,27,09,23,1.60
2013,09,27,09,24,1.60
2013,09,27,09,25,1.10
2013,09,27,09,26,2.70
2013,09,27,09,27,2.00
2013,09,27,09,28,2.40
2013,09,27,09,29,2.40
2013,09,27,09,30,2.80
2013,09,27,09,31,2.80
2013,09,27,09,32,3.70
2013,09,27,09,33,2.70
2013,09,27,09,34,4.10
2013,09,27,09,35,2.50
2013,09,27,09,36,3.90
2013,09,27,09,37,3.80
2013,09,27,09,38,4.30
2013,09,27,09,39,4.20
2013,09,27,09,40,5.20
2013,09,27,09,41,4.40
2013,09,27,09,42,4.50
2013,09,27,09,43,3.40
2013,09,27,09,44,2.70
2013,09,27,09,45,3.00
2013,09,27,09,46,4.30
2013,09,27,09,47,4.00
2013,09,27,09,48,5.30
2013,09,27,09,49,4.80
2013,09,27,09,50,4.80
2013,09,27,09,51,5.20
2013,09,27,09,52,6.90
2013,09,27,09,53,6.20
2013,09,27,09,54,5.20
2013,09,27,09,55,4.00
2013,09,27,09,56,3.10
2013,09,27,09,57,2.10
2013,09,27,09,58,2.40
2013,09,27,09,59,2.10
2013,09,27,10,00,2.10
2013,09,27,10,01,0.30
2013,09,27,10,02,2.80
2013,09,27,10,03,2.90
2013,09,27,10,04,2.10
2013,09,27,10,05,1.70
2013,09,27,10,06,2.50
2013,09,27,10,07,2.60
2013,09,27,10,08,3.60
2013,09,27,10,09,4.00
2013,09,27,10,10,4.80
2013,09,27,10,11,5.50
2013,09,27,10,12,3.90
2013,09,27,10,13,6.10
2013,09,27,10,14,5.00
2013,09,27,10,15,5.40
2013,09,27,10,16,4.30
2013,09,27,10,17,4.00
2013,09,27,10,18,4.60
2013,09,27,10,19,6.90
2013,09,27,10,20,5.70
2013,09,27,10,21,4.70
2013,09,27,10,22,4.80
2013,09,27,10,23,5.70
2013,09,27,10,24,4.70
2013,09,27,10,25,6.00
2013,09,27,10,26,4.90
2013,09,27,10,27,3.60
2013,09,27,10,28,5.10
2013,09,27,10,29,5.00
2013,09,27,10,30,5.20
2013,09,27,10,31,6.60
2013,09,27,10,32,6.30
2013,09,27,10,33,5.70
2013,09,27,10,34,6.00
2013,09,27,10,35,7.50
2013,09,27,10,36,7.70
2013,09,27,10,37,4.60
2013,09,27,10,38,3.70
2013,09,27,10,39,2.10
2013,09,27,10,40,2.70
2013,09,27,10,41,3.40
2013,09,27,10,42,6.70
2013,09,27,10,43,7.00
2013,09,27,10,44,6.20
2013,09,27,10,45,3.20
2013,09,27,10,46,1.80
2013,09,27,10,47,2.90
2013,09,27,10,48,2.80
2013,09,27,10,49,1.80
2013,09,27,10,50,1.60
2013,09,27,10,51,2.00
2013,09,27,10,52,3.60
2013,09,27,10,53,4.30
2013,09,27,10,54,3.30
2013,09,27,10,55,1.90
2013,09,27,10,56,1.40
2013,09,27,10,57,4.00
2013,09,27,10,58,2.60
2013,09,27,10,59,2.10
2013,09,27,11,00,3.50
2013,09,27,11,01,1.40
2013,09,27,11,02,4.00
2013,09,27,11,03,5.30
2013,09,27,11,04,4.30
2013,09,27,11,05,2.50
2013,09,27,11,06,3.50
2013,09,27,11,07,4.70
2013,09,27,11,08,6.60
2013,09,27,11,09,3.80
2013,09,27,11,10,3.40
2013,09,27,11,11,4.90
2013,09,27,11,12,4.40
2013,09,27,11,13,6.60
2013,09,27,11,14,5.20
2013,09,27,11,15,9.50
2013,09,27,11,16,8.50
2013,09,27,11,17,7.10
2013,09,27,11,18,5.90
2013,09,27,11,19,4.90
2013,09,27,11,20,3.40
2013,09,27,11,21,1.70
2013,09,27,11,22,2.90
2013,09,27,11,23,4.40
2013,09,27,11,24,4.20
2013,09,27,11,25,2.70
2013,09,27,11,26,3.20
2013,09,27,11,27,6.00
2013,09,27,11,28,5.20
2013,09,27,11,29,7.10
2013,09,27,11,30,7.20
2013,09,27,11,31,6.20
2013,09,27,11,32,7.50
2013,09,27,11,33,6.60
2013,09,27,11,34,4.40
2013,09,27,11,35,6.00
2013,09,27,11,36,7.90
2013,09,27,11,37,4.70
2013,09,27,11,38,3.90
2013,09,27,11,39,1.40
2013,09,27,11,40,0.80
2013,09,27,11,41,1.70
2013,09,27,11,42,1.70
2013,09,27,11,43,1.20
2013,09,27,11,44,2.40
2013,09,27,11,45,2.20
2013,09,27,11,46,5.90
2013,09,27,11,47,6.10
2013,09,27,11,48,5.00
2013,09,27,11,49,2.90
2013,09,27,11,50,2.30
2013,09,27,11,51,5.60
2013,09,27,11,52,2.60
2013,09,27,11,53,3.80
2013,09,27,11,54,3.50
2013,09,27,11,55,2.00
2013,09,27,11,56,3.00
2013,09,27,11,57,3.40
2013,09,27,11,58,2.80
2013,09,27,11,59,3.20
2013,09,27,12,00,3.00
2013,09,27,12,01,4.20
2013,09,27,12,02,4.20
2013,09,27,12,03,2.20
2013,09,27,12,04,2.10
2013,09,27,12,05,2.10
2013,09,27,12,06,1.70
2013,09,27,12,07,2.20
2013,09,27,12,08,6.40
2013,09,27,12,09,7.50
2013,09,27,12,10,4.40
2013,09,27,12,11,4.70
2013,09,27,12,12,4.20
2013,09,27,12,13,11.80
2013,09,27,12,14,9.40
2013,09,27,12,15,5.00
2013,09,27,12,16,10.80
2013,09,27,12,17,10.80
2013,09,27,12,18,8.30
2013,09,27,12,19,12.90
2013,09,27,12,20,11.60
2013,09,27,12,21,13.90
2013,09,27,12,22,11.70
2013,09,27,12,23,10.00
2013,09,27,12,24,14.70
2013,09,27,12,25,13.50
2013,09,27,12,26,10.80
2013,09,27,12,27,9.60
2013,09,27,12,28,14.20
2013,09,27,12,29,9.90
2013,09,27,12,30,15.00
2013,09,27,12,31,13.00
2013,09,27,12,32,11.00
2013,09,27,12,33,11.00
2013,09,27,12,34,8.80
2013,09,27,12,35,7.20
2013,09,27,12,36,12.40
2013,09,27,12,37,5.40
2013,09,27,12,38,7.00
2013,09,27,12,39,10.00
2013,09,27,12,40,11.00
2013,09,27,12,41,10.70
2013,09,27,12,42,13.90
2013,09,27,12,43,11.20
2013,09,27,12,44,8.50
2013,09,27,12,45,6.60
2013,09,27,12,46,4.50
2013,09,27,12,47,8.30
2013,09,27,12,48,13.30
2013,09,27,12,49,12.20
2013,09,27,12,50,15.10
2013,09,27,12,51,12.50
2013,09,27,12,52,13.90
2013,09,27,12,53,12.00
2013,09,27,12,54,10.30
2013,09,27,12,55,12.50
2013,09,27,12,56,9.10
2013,09,27,12,57,14.70
2013,09,27,12,58,15.90
2013,09,27,12,59,15.30
2013,09,27,13,00,17.50
2013,09,27,13,01,16.20
2013,09,27,13,02,16.30
2013,09,27,13,03,11.70
2013,09,27,13,04,12.60
2013,09,27,13,05,13.80
2013,09,27,13,06,14.50
2013,09,27,13,07,9.10
2013,09,27,13,08,13.80
2013,09,27,13,09,15.50
2013,09,27,13,10,12.20
2013,09,27,13,11,18.90
2013,09,27,13,12,12.80
2013,09,27,13,13,14.90
2013,09,27,13,14,13.80
2013,09,27,13,15,14.00
2013,09,27,13,16,15.10
2013,09,27,13,17,12.60
2013,09,27,13,18,9.10
2013,09,27,13,19,7.20
2013,09,27,13,20,8.80
2013,09,27,13,21,12.50
2013,09,27,13,22,8.50
2013,09,27,13,23,8.70
2013,09,27,13,24,15.90
2013,09,27,13,25,15.20
2013,09,27,13,26,11.90
2013,09,27,13,27,10.80
2013,09,27,13,28,10.50
2013,09,27,13,29,9.40
2013,09,27,13,30,12.30
2013,09,27,13,31,10.60
2013,09,27,13,32,8.80
2013,09,27,13,33,8.70
2013,09,27,13,34,12.70
2013,09,27,13,35,14.10
2013,09,27,13,36,9.30
2013,09,27,13,37,9.70
2013,09,27,13,38,11.20
2013,09,27,13,39,7.90
2013,09,27,13,40,9.60
2013,09,27,13,41,7.70
2013,09,27,13,42,5.00
2013,09,27,13,43,6.60
2013,09,27,13,44,13.10
2013,09,27,13,45,14.90
2013,09,27,13,46,11.40
2013,09,27,13,47,9.70
2013,09,27,13,48,10.20
2013,09,27,13,49,12.80
2013,09,27,13,50,13.40
2013,09,27,13,51,9.80
2013,09,27,13,52,11.80
2013,09,27,13,53,13.60
2013,09,27,13,54,13.30
2013,09,27,13,55,11.70
2013,09,27,13,56,10.30
2013,09,27,13,57,11.70
2013,09,27,13,58,7.70
2013,09,27,13,59,8.90
2013,09,27,14,00,8.70
2013,09,27,14,01,14.40
2013,09,27,14,02,12.10
2013,09,27,14,03,9.90
2013,09,27,14,04,10.20
2013,09,27,14,05,14.30
2013,09,27,14,06,10.50
2013,09,27,14,07,11.40
2013,09,27,14,08,8.10
2013,09,27,14,09,9.90
2013,09,27,14,10,11.20
2013,09,27,14,11,8.80
2013,09,27,14,12,7.20
2013,09,27,14,13,9.10
2013,09,27,14,14,13.70
2013,09,27,14,15,7.80
2013,09,27,14,16,7.70
2013,09,27,14,17,12.50
2013,09,27,14,18,10.90
2013,09,27,14,19,10.50
2013,09,27,14,20,10.00
2013,09,27,14,21,6.40
2013,09,27,14,22,7.10
2013,09,27,14,23,7.90
2013,09,27,14,24,8.30
2013,09,27,14,25,9.20
2013,09,27,14,26,10.50
2013,09,27,14,27,8.00
2013,09,27,14,28,8.10
2013,09,27,14,29,8.00
2013,09,27,14,30,8.50
2013,09,27,14,31,9.40
2013,09,27,14,32,7.50
2013,09,27,14,33,7.40
2013,09,27,14,34,5.60
2013,09,27,14,35,8.50
2013,09,27,14,36,6.90
2013,09,27,14,37,5.30
2013,09,27,14,38,10.00
2013,09,27,14,39,9.10
2013,09,27,14,40,8.80
2013,09,27,14,41,4.80
2013,09,27,14,42,7.10
2013,09,27,14,43,9.80
2013,09,27,14,44,11.60
2013,09,27,14,45,11.80
2013,09,27,14,46,9.80
2013,09,27,14,47,8.70
2013,09,27,14,48,13.50
2013,09,27,14,49,9.70
2013,09,27,14,50,10.80
2013,09,27,14,51,10.50
2013,09,27,14,52,7.60
2013,09,27,14,53,11.30
2013,09,27,14,54,8.50
2013,09,27,14,55,8.90
2013,09,27,14,56,8.90
2013,09,27,14,57,10.50
2013,09,27,14,58,7.70
2013,09,27,14,59,6.20
2013,09,27,15,00,8.00
2013,09,27,15,01,9.30
2013,09,27,15,02,12.20
2013,09,27,15,03,10.10
2013,09,27,15,04,8.80
2013,09,27,15,05,6.90
2013,09,27,15,06,7.40
2013,09,27,15,07,11.10
2013,09,27,15,08,10.00
2013,09,27,15,09,8.30
2013,09,27,15,10,7.90
2013,09,27,15,11,8.80
2013,09,27,15,12,8.40
2013,09,27,15,13,6.80
2013,09,27,15,14,6.70
2013,09,27,15,15,8.90
2013,09,27,15,16,6.50
2013,09,27,15,17,6.60
2013,09,27,15,18,7.80
2013,09,27,15,19,6.60
2013,09,27,15,20,4.80
2013,09,27,15,21,3.00
2013,09,27,15,22,7.90
2013,09,27,15,23,8.70
2013,09,27,15,24,4.90
2013,09,27,15,25,4.00
2013,09,27,15,26,4.40
2013,09,27,15,27,7.70
2013,09,27,15,28,7.60
2013,09,27,15,29,8.20
2013,09,27,15,30,10.10
2013,09,27,15,31,8.80
2013,09,27,15,32,9.40
2013,09,27,15,33,8.30
2013,09,27,15,34,7.80
2013,09,27,15,35,8.80
2013,09,27,15,36,9.40
2013,09,27,15,37,11.90
2013,09,27,15,38,9.40
2013,09,27,15,39,6.40
2013,09,27,15,40,5.90
2013,09,27,15,41,8.50
2013,09,27,15,42,7.50
2013,09,27,15,43,9.80
2013,09,27,15,44,7.70
2013,09,27,15,45,9.90
2013,09,27,15,46,12.00
2013,09,27,15,47,10.30
2013,09,27,15,48,13.10
2013,09,27,15,49,6.90
2013,09,27,15,50,9.40
2013,09,27,15,51,10.70
2013,09,27,15,52,8.50
2013,09,27,15,53,8.60
2013,09,27,15,54,9.50
2013,09,27,15,55,9.10
2013,09,27,15,56,11.80
2013,09,27,15,57,9.40
2013,09,27,15,58,8.30
2013,09,27,15,59,9.40
2013,09,27,16,00,10.90
2013,09,27,16,01,9.80
2013,09,27,16,02,8.50
2013,09,27,16,03,11.60
2013,09,27,16,04,11.90
2013,09,27,16,05,9.00
2013,09,27,16,06,8.60
2013,09,27,16,07,8.90
2013,09,27,16,08,6.90
2013,09,27,16,09,5.40
2013,09,27,16,10,4.80
2013,09,27,16,11,7.10
2013,09,27,16,12,9.60
2013,09,27,16,13,7.20
2013,09,27,16,14,8.10
2013,09,27,16,15,9.60
2013,09,27,16,16,8.70
2013,09,27,16,17,7.60
2013,09,27,16,18,5.70
2013,09,27,16,19,6.50
2013,09,27,16,20,5.80
2013,09,27,16,21,5.30
2013,09,27,16,22,3.70
2013,09,27,16,23,4.10
2013,09,27,16,24,6.30
2013,09,27,16,25,4.90
2013,09,27,16,26,8.90
2013,09,27,16,27,5.00
2013,09,27,16,28,5.20
2013,09,27,16,29,5.60
2013,09,27,16,30,6.30
2013,09,27,16,31,6.20
2013,09,27,16,32,8.50
2013,09,27,16,33,7.30
2013,09,27,16,34,7.10
2013,09,27,16,35,5.90
2013,09,27,16,36,4.60
2013,09,27,16,37,7.00
2013,09,27,16,38,5.00
2013,09,27,16,39,5.60
2013,09,27,16,40,7.40
2013,09,27,16,41,11.60
2013,09,27,16,42,9.70
2013,09,27,16,43,6.90
2013,09,27,16,44,7.70
2013,09,27,16,45,9.10
2013,09,27,16,46,9.20
2013,09,27,16,47,7.90
2013,09,27,16,48,6.70
2013,09,27,16,49,5.70
2013,09,27,16,50,4.50
2013,09,27,16,51,5.60
2013,09,27,16,52,4.90
2013,09,27,16,53,5.40
2013,09,27,16,54,5.00
2013,09,27,16,55,5.00
2013,09,27,16,56,7.50
2013,09,27,16,57,11.80
2013,09,27,16,58,10.80
2013,09,27,16,59,6.90
2013,09,27,17,00,9.10
2013,09,27,17,01,8.60
2013,09,27,17,02,13.00
2013,09,27,17,03,10.90
2013,09,27,17,04,7.60
2013,09,27,17,05,12.00
2013,09,27,17,06,11.20
2013,09,27,17,07,11.50
2013,09,27,17,08,10.90
2013,09,27,17,09,10.80
2013,09,27,17,10,8.10
2013,09,27,17,11,8.70
2013,09,27,17,12,8.70
2013,09,27,17,13,12.80
2013,09,27,17,14,9.80
2013,09,27,17,15,9.90
2013,09,27,17,16,7.80
2013,09,27,17,17,7.40
2013,09,27,17,18,7.70
2013,09,27,17,19,12.40
2013,09,27,17,20,11.00
2013,09,27,17,21,7.40
2013,09,27,17,22,5.50
2013,09,27,17,23,10.60
2013,09,27,17,24,6.90
2013,09,27,17,25,7.60
2013,09,27,17,26,9.00
2013,09,27,17,27,7.80
2013,09,27,17,28,6.30
2013,09,27,17,29,4.70
2013,09,27,17,30,4.60
2013,09,27,17,31,4.00
2013,09,27,17,32,5.20
2013,09,27,17,33,6.00
2013,09,27,17,34,6.30
2013,09,27,17,35,6.40
2013,09,27,17,36,5.70
2013,09,27,17,37,4.70
2013,09,27,17,38,4.90
2013,09,27,17,39,5.70
2013,09,27,17,40,7.50
2013,09,27,17,41,7.20
2013,09,27,17,42,4.30
2013,09,27,17,43,4.20
2013,09,27,17,44,3.40
2013,09,27,17,45,4.60
2013,09,27,17,46,4.10
2013,09,27,17,47,2.50
2013,09,27,17,48,3.10
2013,09,27,17,49,2.90
2013,09,27,17,50,2.10
2013,09,27,17,51,5.50
2013,09,27,17,52,6.70
2013,09,27,17,53,4.70
2013,09,27,17,54,4.30
2013,09,27,17,55,3.50
2013,09,27,17,56,3.40
2013,09,27,17,57,4.90
2013,09,27,17,58,6.80
2013,09,27,17,59,5.60
2013,09,27,18,00,6.10
2013,09,27,18,01,6.30